Regional Weather Roundup
Issued by NWS

Home | Current Version | Previous Version | Text Only | Print | Product List | Glossary Off
Versions: 1 2 3 4 5 6 7 8 9 10 11 12 13 14 15 16 17 18 19 20 21 22 23 24 25 26 27 28 29 30 31 32 33 34 35 36 37 38 39 40 41 42 43 44 45 46 47 48 49 50

711
ASUS44 KLIX 181705
RWRLA
LOUISIANA WEATHER ROUNDUP
NATIONAL WEATHER SERVICE NEW ORLEANS LA
1200 PM CDT THU SEP 18 2014

NOTE: "FAIR" INDICATES FEW OR NO CLOUDS BELOW 12,000 FEET WITH NO
      SIGNIFICANT WEATHER AND/OR OBSTRUCTIONS TO VISIBILITY.
      SKY/WX - SKY CONDITION AND SIGNIFICANT WEATHER.
      TMP - AIR TEMPERATURE.    DP   - DEWPOINT TEMPERATURE.
      RH  - RELATIVE HUMIDITY.  PRES - PRESSURE.
      HX  - HEAT INDEX.         WCI  - WIND CHILL INDEX.

*  THESE STATIONS ARE NOT NWS OR FAA STATIONS AND ARE NOT UNDER
   NWS QUALITY CONTROL.

LAZ040-048-061>063-065-066-069-181800-
SOUTHEAST LOUISIANA

CITY           SKY/WX    TMP DP  RH WIND       PRES   REMARKS
N.O. AUDUBON     N/A     87  73  64 MISG        N/A
N.O. INTL ARPT CLOUDY    88  71  57 CALM      29.92F
N.O. LAKEFRONT CLOUDY    86  71  60 SE6       29.93F
N.O. DOWNTOWN* FAIR      88  70  55 SE7       29.93F
SLIDELL        CLOUDY    85  72  65 SE5       29.92F
BATON ROUGE    CLOUDY    83  73  72 VRB5      29.93F
BOOTHVILLE     PTSUNNY   86  75  69 NE6       29.94F HX  95
BELLE CHASSE   CLOUDY    86  73  65 E5        29.92F
BOGALUSA*      FAIR      84  72  67 CALM      29.95F
GALLIANO*      NOT AVBL
NEW ROADS*     FAIR      80  74  81 MISG      29.94S
GONZALES*      PTSUNNY   85  76  74 SE5       29.92F HX  95
HAMMOND*       NOT AVBL
HOUMA*         PTSUNNY   84  61  45 MISG      29.93F
PORT FOURCHON* SUNNY     84  73  70 SE6       29.97S

$$

LAZ041-044-053-054-181800-
SOUTHWEST LOUISIANA

CITY           SKY/WX    TMP DP  RH WIND       PRES   REMARKS
LAKE CHARLES   CLOUDY    79  75  87 SE3       29.93S
LAFAYETTE      CLOUDY    80  75  84 CALM      29.94S
PATTERSON        N/A     82  75  78 E6        29.95F
SALT POINT       N/A     84  77  79 CALM      29.92F
NEW IBERIA     CLOUDY    83  74  74 E5        29.94S
CHENAULT AIRPK PTSUNNY   79  75  89 E3        29.94S

$$

LAZ027-028-181800-
CENTRAL LOUISIANA

CITY           SKY/WX    TMP DP  RH WIND       PRES   REMARKS
FORT POLK      LGT RAIN  78  74  87 N5        29.94F
ALEXANDRIA INT CLOUDY    82  73  74 CALM      29.92F
ALEXANDRIA     CLOUDY    83  72  69 E3        29.93F

$$

LAZ001-002-181800-
NORTHWEST LOUISIANA

CITY           SKY/WX    TMP DP  RH WIND       PRES   REMARKS
SHREVEPORT     CLOUDY    81  72  74 CALM      29.93F
BARKSDALE AFB  NOT AVBL
DTN SHREVEPORT CLOUDY    80  72  76 CALM      29.94F

$$

LAZ014-016-181800-
NORTHEAST LOUISIANA

CITY           SKY/WX    TMP DP  RH WIND       PRES   REMARKS
MONROE         CLOUDY    85  73  67 CALM      29.94F
TALLULAH       PTSUNNY   87  72  60 SE6       29.93F

$$




USA.gov is the U.S. government's official web portal to all federal, state and local government web resources and services.